Tracking 29034 objects as of 25-Jun-2024
HD Live streaming from Space Station
objects crossing your sky now

STARLING 3

Track STARLING 3 now!
10-day predictions


NORAD ID: 57389
Int'l Code: 2023-100D
Perigee: 571.0 km
Apogee: 576.3 km
Inclination: 99.5 °
Period: 96.0 minutes
Semi major axis: 6944 km
RCS: Unknown
Launch date: July 18, 2023
Source: United States (US)
Launch site: Rocket Lab Launch Complex (RLLC)
Your satellite tracking list
Your tracking list is empty




NASA's NSSDC Master Catalog

Two Line Element Set (TLE):
1 57389U 23100D   24176.52388913  .00002526  00000-0  20912-3 0  9999
2 57389  99.5011  20.2647 0003808 299.5746  60.5092 15.00135940 51300
Source of the keplerian elements: AFSPC